Regional Weather Roundup
Issued by NWS Huntsville, AL

Current Version | Previous Version | Text Only | Print | Product List | Glossary On
Versions: 1 2 3 4 5 6 7 8 9 10 11 12 13 14 15 16 17 18 19 20 21 22 23 24 25 26 27 28 29 30 31 32 33 34 35 36 37 38 39 40 41 42 43 44 45 46 47 48 49 50
000
ASUS44 KHUN 210210
RWRHUN

WEATHER ROUNDUP FOR THE TENNESSEE VALLEY
NATIONAL WEATHER SERVICE HUNTSVILLE AL
800 PM CST THU NOV 20 2014

ALZ001>004-210300-
NORTHWEST ALABAMA

CITY           SKY/WX    TMP DP  RH WIND       PRES   REMARKS
COURTLAND HCN    N/A     37 N/A N/A CALM        N/A
RUSSELLVILLE     N/A     39 N/A N/A MISG        N/A
SHOALS AIRPORT CLOUDY    40  29  64 CALM      30.26R
SHOALS TVA RES   N/A     39 N/A N/A MISG        N/A
$$

ALZ005>007-016-210300-
NORTH CENTRAL ALABAMA

CITY           SKY/WX    TMP DP  RH WIND       PRES   REMARKS
DECATUR AP     CLOUDY    40  32  73 CALM      30.26R
HUNTSVILLE AP  MOCLDY    42  31  64 CALM      30.25R
MERIDIANVILLE  CLEAR     32  28  86 CALM      30.26R
REDSTONE ARSN  PTCLDY    41  32  68 VRB1      30.25R
VINEMONT AP    FAIR      38  33  83 NE3       30.26S
$$

ALZ008>010-210300-
NORTHEAST ALABAMA

CITY           SKY/WX    TMP DP  RH WIND       PRES   REMARKS
ALBERTVILLE    MOCLDY    45  36  70 CALM      30.24R
FORT PAYNE     CLEAR     34  28  80 CALM      30.25S
SCOTTSBORO AP  CLEAR     37  32  81 CALM      30.26S
SCOTTSBORO HCN   N/A     36 N/A N/A MISG        N/A
VALLEY HEAD      N/A     32 N/A N/A MISG        N/A
$$

TNZ076-096-097-210300-
SOUTHEASTERN MIDDLE TENNESSEE

CITY           SKY/WX    TMP DP  RH WIND       PRES   REMARKS
TULLAHOMA      CLEAR     30  23  74 CALM      30.25R
WINCHESTER     CLEAR     30  27  86 CALM      30.26R
$$

...SURROUNDING SITES...

CITY           SKY/WX    TMP DP  RH WIND       PRES   REMARKS
ATLANTA        MOCLDY    49  35  58 NW7       30.23R
ANNISTON       CLEAR     41  36  82 NE3       30.25R
BIRMINGHAM     MOCLDY    50  39  66 CALM      30.25S
CHATTANOOGA    CLEAR     41  27  57 CALM      30.25R
CORINTH        CLOUDY    45  28  53 CALM      30.24S
DALTON         CLEAR     37  32  81 CALM      30.25R
GADSDEN        CLEAR     37  30  75 CALM      30.25R
GOLDEN TRNGL   MOCLDY    50  41  71 CALM      30.22S
HALEYVILLE     CLOUDY    42  36  79 CALM      30.26R
JACKSON TN     CLOUDY    44  29  55 E5        30.24S
LEWISBURG      FAIR      29  24  81 CALM      30.25R
MEMPHIS        MOCLDY    49  27  42 E6        30.22R
MURFREESBORO   FAIR      36  25  65 CALM      30.25R
NASHVILLE      CLEAR     34  23  64 CALM      30.27R
OXFORD MS      FAIR      41  34  75 E3        30.22S
ROME           CLEAR     37  31  78 NE3       30.24R
SAVANNAH       CLOUDY    36  30  80 CALM      30.25S
TUPELO         CLEAR     47  33  58 CALM      30.23R
TUSCALOOSA     PTCLDY    50  44  80 CALM      30.24R
$$

...GULF COAST WEATHER...

CITY           SKY/WX    TMP DP  RH WIND       PRES   REMARKS
GULFPORT       CLEAR     49  44  83 CALM      30.25R
PASCAGOULA     CLEAR     41  41 100 CALM      30.25R FOG
MOBILE         CLEAR     49  44  83 CALM      30.25S
GULF SHORES    CLEAR     44  44  97 CALM      30.25S
PENSACOLA      CLEAR     43  41  93 CALM      30.25S
DESTIN         CLEAR     50  46  86 CALM      30.25S
PANAMA CITY    PTCLDY    46  43  90 CALM      30.26S
APPALACHICOLA  PTCLDY    46  38  73 CALM      30.27R
$$




USA.gov is the U.S. government's official web portal to all federal, state and local government web resources and services.